FW8334 Weather Reports


Display with metric or nautical units.
time (UTC)temp
F
wind
direction
speed
MPH
gust
MPH
rain 1hr
in
rain 24hr
in
rain mn
in
humidity
%
barometer
mb
20260904004554 72 261 1.0 6.0 0.00 0.00 0.00 73 1011.3
20260904003048 0 0.0 0.0 0.00 0.00 0.00 1011.3
20260904001600 74 1.0 4.0 0.00 0.00 0.00 71 1011.3
20260904000045 0 0.0 0.0 0.00 0.00 0.00 1011.4
20260903234551 0 0.0 0.0 0.00 0.00 0.00 1011.3
20260903233049 0 0.0 0.0 0.00 0.00 0.00 1011.4
20260903231547 0 0.0 0.0 0.00 0.00 0.00 1011.6
20260903230046 0 0.0 0.0 0.00 0.00 0.00 1011.6
20260903224551 0 0.0 0.0 0.00 0.00 0.00 1011.6
20260903223049 0 0.0 0.0 0.00 0.00 0.00 1011.8
20260903221547 0 0.0 0.0 0.00 0.00 0.00 1011.8
20260903220055 78 216 3.0 12.0 0.00 0.00 0.00 69 1012.0
20260903214546 78 290 4.0 9.0 0.00 0.00 0.00 66 1012.0
20260903213051 77 277 4.0 11.0 0.00 0.00 0.00 66 1012.0
20260903211545 78 259 4.0 10.0 0.00 0.00 0.00 66 1012.2
20260903210051 79 294 3.0 9.0 0.00 0.00 0.00 67 1012.2
20260903204547 78 275 4.0 8.0 0.00 0.00 0.00 67 1012.1
20260903203053 77 0 3.0 9.0 0.00 0.00 0.00 70 1012.1
20260903201547 78 234 2.0 8.0 0.00 0.00 0.00 70 1012.3
20260903200053 77 281 3.0 11.0 0.00 0.00 0.00 71 1012.3
20260903194553 77 313 1.0 9.0 0.00 0.00 0.00 70 1012.5
20260903193047 77 284 2.0 10.0 0.00 0.00 0.00 70 1012.7
20260903191546 77 279 3.0 9.0 0.00 0.00 0.00 70 1012.7
20260903190049 77 277 2.0 11.0 0.00 0.00 0.00 69 1012.9
20260903184550 78 243 4.0 8.0 0.00 0.00 0.00 65 1013.2
20260903183043 77 311 2.0 8.0 0.00 0.00 0.00 66 1013.3
20260903181553 0 0.0 0.0 0.00 0.00 0.00 1013.3
20260903180054 0 0.0 0.0 0.00 0.00 0.00 1013.3
20260903174546 76 299 2.0 8.0 0.00 0.00 0.00 62 1013.5
20260903173043 76 0 1.0 4.0 0.00 0.00 0.00 68 1013.5
20260903171552 74 248 0.0 7.0 0.00 0.00 0.00 69 1013.6
20260903170050 73 0.0 3.0 0.00 0.00 0.00 72 1013.6
20260903164544 72 237 0.0 5.0 0.00 0.00 0.00 75 1013.6
20260903163105 71 0 0.0 2.0 0.00 0.00 0.00 77 1013.7
20260903161549 69 0 0.0 2.0 0.00 0.00 0.00 81 1013.8
20260903160049 69 0 0.0 2.0 0.00 0.00 0.00 81 1013.8
20260903154547 68 0 0.0 2.0 0.00 0.00 0.00 82 1013.9
20260903153042 67 0 0.0 0.0 0.00 0.00 0.00 83 1013.9
20260903151548 65 0 0.0 2.0 0.00 0.00 0.00 85 1013.9
20260903150048 64 0 0.0 4.0 0.00 0.00 0.00 88 1013.9
20260903144551 62 0 0.0 3.0 0.00 0.00 0.00 92 1013.9
20260903143047 61 114 1.0 3.0 0.00 0.00 0.00 93 1013.7
20260903141549 60 103 1.0 4.0 0.00 0.00 0.00 94 1013.5
20260903140048 59 94 0.0 2.0 0.00 0.00 0.00 95 1013.4
20260903134605 59 0 0.0 0.0 0.00 0.00 0.00 95 1013.2
20260903133056 59 0 0.0 0.0 0.00 0.00 0.00 95 1013.1
20260903131549 59 0 0.0 0.0 0.00 0.00 0.00 95 1013.0
20260903130050 57 0 0.0 0.0 0.00 0.00 0.00 95 1012.9
20260903124554 58 0 0.0 0.0 0.00 0.00 0.00 94 1012.9
20260903123051 58 0 0.0 0.0 0.00 0.00 0.00 95 1012.9
20260903121552 57 0 0.0 0.0 0.00 0.00 0.00 94 1012.9
20260903120116 58 0 0.0 0.0 0.00 0.00 0.00 94 1012.9
20260903114600 58 0 0.0 0.0 0.00 0.00 0.00 94 1013.0
20260903113046 58 0 0.0 0.0 0.00 0.00 0.00 94 1013.0
20260903111547 0 0.0 0.0 0.00 0.00 0.00 1012.9
20260903110052 0 0.0 0.0 0.00 0.00 0.00 1013.0
20260903104550 0 0.0 0.0 0.00 0.00 0.00 1013.0
20260903103046 0 0.0 0.0 0.00 0.00 0.00 1013.0
20260903101549 59 0 0.0 0.0 0.00 0.00 0.00 93 1013.2
20260903100049 60 0 0.0 0.0 0.00 0.00 0.00 93 1013.3
20260903094547 0 0.0 0.0 0.00 0.00 0.00 1013.5
20260903093047 0 0.0 0.0 0.00 0.00 0.00 1013.7
20260903091543 0 0.0 0.0 0.00 0.00 0.00 1013.7
20260903090051 0 0.0 0.0 0.00 0.00 0.00 1013.8
20260903084548 0 0.0 0.0 0.00 0.00 0.00 1013.9
20260903083047 0 0.0 0.0 0.00 0.00 0.00 1014.0
20260903081542 0 0.0 0.0 0.00 0.00 0.00 1014.1
20260903080050 0 0.0 0.0 0.00 0.00 0.00 1014.2
20260903074608 0 0.0 0.0 0.00 0.00 0.00 1014.2
20260903073058 0 0.0 0.0 0.00 0.00 0.00 1014.2
20260903071549 0 0.0 0.0 0.00 0.00 0.00 1014.3
20260903070049 0 0.0 0.0 0.00 0.00 0.00 1014.2
20260903064545 0 0.0 0.0 0.00 0.00 0.00 1014.1
20260903063042 0 0.0 0.0 0.00 0.00 0.00 1014.1
20260903061601 0 0.0 0.0 0.00 0.00 0.00 1014.2
20260903060050 0 0.0 0.0 0.00 0.00 0.00 1014.2
20260903054543 0 0.0 0.0 0.00 0.00 0.00 1014.3
20260903053053 0 0.0 0.0 0.00 0.00 0.00 1014.4
20260903051554 0 0.0 0.0 0.00 0.00 0.00 1014.4
20260903050043 0 0.0 0.0 0.00 0.00 0.00 1014.5
20260903044556 63 1.0 2.0 0.00 0.00 0.00 89 1014.4
20260903043048 63 0 1.0 2.0 0.00 0.00 0.00 88 1014.3
20260903041602 64 263 1.0 2.0 0.00 0.00 0.00 87 1014.3
20260903040041 64 0 0.0 0.0 0.00 0.00 0.00 86 1014.2
20260903034547 65 0 0.0 0.0 0.00 0.00 0.00 86 1013.9
20260903033047 66 0 0.0 0.0 0.00 0.00 0.00 86 1013.8
20260903031546 66 0 0.0 0.0 0.00 0.00 0.00 85 1013.7
20260903030043 67 0.0 0.0 0.00 0.00 0.00 84 1013.6
20260903024550 67 0 0.0 0.0 0.00 0.00 0.00 84 1013.6
20260903023048 68 0 0.0 0.0 0.00 0.00 0.00 83 1013.5
20260903021547 69 0 0.0 2.0 0.00 0.00 0.00 80 1013.5
20260903020055 70 0 0.0 2.0 0.00 0.00 0.00 78 1013.5
20260903014607 70 0 0.0 1.0 0.00 0.00 0.00 75 1013.4
20260903013059 0 0.0 0.0 0.00 0.00 0.00 1013.3
20260903011616 0 0.0 0.0 0.00 0.00 0.00 1013.3
20260903010106 0 0.0 0.0 0.00 0.00 0.00 1013.2